User: anonymous   Login
Location: Unspecified
(0.0000°N, 0.0000°E)
Time: 19:02:16
(UTC+00:00)
Language:

DMSP B5D2-5 - Orbit

View from above orbital plane
View from above orbital plane
View from above satellite
View from above satellite

Ground track
Ground track

The orbit data is extracted from the following two-line orbital elements,

1 20978U 90105A   19084.54103431  .00000035  00000-0  26284-4 0  9998
2 20978  98.7210  60.2827 0072814 202.2828 157.5190 14.38039247483066
Epoch (UTC): 25 March 2019 12:59:05
Eccentricity: 0.0072814
inclination: 98.7210°
perigee height: 713 km
apogee height: 817 km
right ascension of ascending node: 60.2827°
argument of perigee: 202.2828°
revolutions per day: 14.38039247
mean anomaly at epoch: 157.5190°
orbit number at epoch: 48306

The dashed part of the orbit path shows where the satellite is in the earth's shadow,  

DLR